sat.trackr.live / text

‹ back to catalog

STARLINK-35079

NORAD 65649 · 2025-210AD

PAYLOAD ACTIVE UNKNOWN

§ Identity

Operator
Country
US
Launch date
2025-09-18
Launch site
AFETR
Launch vehicle
Mass (kg)
RCS (m²)

Purposes: comms

External: N2YO · Heavens-Above · Gunter

§ Orbital elements

Epoch: 2026-09-20T07:59:40.692768Z

Period
93.85 min
Inclination
53.1605°
Eccentricity
0.0001161
Mean motion
15.34391242 rev/d
Perigee alt
461.9 km
Apogee alt
463.5 km
Semi-major
6,840.9 km
B*
4.3077e-4
RAAN
122.1397°
Arg perigee
99.5587°
Mean anomaly
260.5546°
Rev number
5,754

§ Raw data

STARLINK-350791 65649U 25210AD  26263.33310987  .00014202  00000+0  43077-3 0  99952 65649  53.1605 122.1397 0001161  99.5587 260.5546 15.34391242 57542

JSON: /api/v1/satellites/65649 · /tle

For live sub-satellite position, see the globe view (requires WebGL).

§ Visibility from observer

Set your observer location to see the next 7 days of passes ≥ 10°. The values pass through the URL so the page stays shareable.

No JS? Fill the form by hand. The geolocation button needs JavaScript.